Regional Weather Roundup
Issued by NWS

Home | Current Version | Previous Version | Graphics & Text | Print | Product List | Glossary On
Versions: 1 2 3 4 5 6 7 8 9 10 11 12 13 14 15 16 17 18 19 20 21 22 23 24 25 26 27 28 29 30 31 32 33 34 35 36 37 38 39 40 41 42 43 44 45 46 47 48 49 50
000
ASUS43 KMKX 270611
RWRWI

WISCONSIN REGIONAL WEATHER ROUNDUP
NATIONAL WEATHER SERVICE MILWAUKEE/SULLIVAN WI
100 AM CDT TUE SEP 27 2016

NOTE: "FAIR" INDICATES FEW OR NO CLOUDS BELOW 12,000 FEET WITH NO
SIGNIFICANT WEATHER AND/OR OBSTRUCTIONS TO VISIBILITY.

WIZ001-002-006>008-014>016-023>028-270700-
NORTHWEST WISCONSIN

CITY           SKY/WX    TMP DP  RH WIND       PRES   REMARKS
SUPERIOR ARPT  CLOUDY    54  44  71 W13G18    29.71S
6HR MIN TEMP:  54; 6HR MAX TEMP:  55;

ASHLAND        LGT RAIN  50  47  89 W12       29.66F
6HR MIN TEMP:  50; 6HR MAX TEMP:  53; 6HR PCP:  0.07;

HAYWARD        CLOUDY    53  42  66 VRB5      29.72F
6HR MIN TEMP:  53; 6HR MAX TEMP:  55; 6HR PCP: TRACE;

SIREN          CLOUDY    53  39  60 NW13      29.77F
6HR MIN TEMP:  53; 6HR MAX TEMP:  58;

CUMBERLAND     CLOUDY    52  37  58 W15       29.77S
RICE LAKE      CLOUDY    54  39  58 W13G18    29.77F
6HR MIN TEMP:  53; 6HR MAX TEMP:  57;

CHETEK         NOT AVBL
LADYSMITH      CLOUDY    55  43  64 W12G21    29.74F
6HR MIN TEMP:  55; 6HR MAX TEMP:  57;

EAU CLAIRE     CLEAR     54  40  59 W10G23    29.78S
6HR MIN TEMP:  50; 6HR MAX TEMP:  58;

MENOMONIE      CLEAR     54  40  59 W13G20    29.80F
6HR MIN TEMP:  53; 6HR MAX TEMP:  60;

NEW RICHMOND   CLEAR     49  40  70 W12       29.82S
6HR MIN TEMP:  49; 6HR MAX TEMP:  57;

OSCEOLA        CLEAR     53  41  65 W9G17     29.84F
6HR MIN TEMP:  51; 6HR MAX TEMP:  59;

$$

WIZ003>005-009-010-017-018-270700-
NORTH CENTRAL WISCONSIN

CITY           SKY/WX    TMP DP  RH WIND       PRES   REMARKS
MANITOWISH WTR NOT AVBL
ARBOR VITAE    CLOUDY    52  48  88 W15G22    29.65F
6HR MIN TEMP:  49; 6HR MAX TEMP:  52; 6HR PCP:  0.01;

WOODRUFF       CLOUDY    52  48  88 W15G22    29.65F
6HR MIN TEMP:  49; 6HR MAX TEMP:  52; 6HR PCP:  0.01;

RHINELANDER    CLOUDY    49  46  90 W17G25    29.67F
6HR MIN TEMP:  49; 6HR MAX TEMP:  50; 6HR PCP:  0.02;

EAGLE RIVER    CLOUDY    48  46  92 W14G26    29.62F
6HR MIN TEMP:  47; 6HR MAX TEMP:  48;

LAND O LAKES   DRIZZLE   48  46  95 W12       29.62F
6HR MIN TEMP:  47; 6HR MAX TEMP:  48;

PHILLIPS       CLOUDY    51  43  75 W7        29.69F
6HR MIN TEMP:  49; 6HR MAX TEMP:  51; 6HR PCP:  0.02;

TOMAHAWK       CLOUDY    51  42  70 W9G17     29.69F
6HR MIN TEMP:  49; 6HR MAX TEMP:  51;

MEDFORD        DRIZZLE   50  42  72 W8        29.72F
6HR MIN TEMP:  50; 6HR MAX TEMP:  54;

MERRILL        CLOUDY    53  42  66 W10G18    29.70F
6HR MIN TEMP:  52; 6HR MAX TEMP:  55;

$$

WIZ029-030-035-036-043>047-270700-
CENTRAL WISCONSIN

CITY           SKY/WX    TMP DP  RH WIND       PRES   REMARKS
WAUSAU         CLOUDY    53  40  61 W12       29.70F
6HR MIN TEMP:  53; 6HR MAX TEMP:  56;

MOSINEE        MOCLDY    50  41  71 W13G18    29.73F
MARSHFIELD     CLOUDY    51  39  63 W9        29.74F
6HR MIN TEMP:  51; 6HR MAX TEMP:  55;

STEVENS POINT  MOCLDY    51  38  61 W9        29.74F
6HR MIN TEMP:  51; 6HR MAX TEMP:  55;

WAUPACA        CLOUDY    55  40  55 W9        29.75F
6HR MIN TEMP:  55; 6HR MAX TEMP:  60;

WAUTOMA        CLOUDY    49  40  71 SW7       29.78F
6HR MIN TEMP:  49; 6HR MAX TEMP:  58;

WISC RAPIDS    MOCLDY    51  39  63 W9        29.77F
6HR MIN TEMP:  51; 6HR MAX TEMP:  56;

CAMP DOUGLAS   CLEAR     53  37  56 W12       29.79F
6HR MIN TEMP:  45; 6HR MAX TEMP:  54;

$$

WIZ011>013-019>022-031-037>040-048>050-270700-
NORTHEAST WISCONSIN

CITY           SKY/WX    TMP DP  RH WIND       PRES   REMARKS
ANTIGO         CLOUDY    51  42  71 W12G17    29.69F
6HR MIN TEMP:  49; 6HR MAX TEMP:  51;

SHAWANO        CLOUDY    56  41  57 W9        29.71S
6HR MIN TEMP:  55; 6HR MAX TEMP:  58;

OCONTO         NOT AVBL
STURGEON BAY   CLOUDY    56  43  61 W14       29.68F
6HR MIN TEMP:  56; 6HR MAX TEMP:  58;

GREEN BAY      MOCLDY    53  43  68 SW9       29.72F
6HR MIN TEMP:  53; 6HR MAX TEMP:  58;

MANITOWOC      PTCLDY    55  41  59 MISG      29.74F
6HR MIN TEMP:  55; 6HR MAX TEMP:  60;

APPLETON       PTCLDY    52  36  54 SW9       29.72F
CLINTONVILLE   NOT AVBL
OSHKOSH        PTCLDY    54  39  57 SW7       29.75F
6HR MIN TEMP:  52; 6HR MAX TEMP:  59;

$$

WIZ032>034-041-042-053>061-270700-
SOUTHWEST WISCONSIN

CITY           SKY/WX    TMP DP  RH WIND       PRES   REMARKS
LA CROSSE      CLEAR     58  37  45 W14       29.84S
6HR MIN TEMP:  58; 6HR MAX TEMP:  64;

SPARTA         CLEAR     49  40  71 SW6       29.82F
6HR MIN TEMP:  41; 6HR MAX TEMP:  56;

VIROQUA        CLEAR     51  36  55 W8        29.85S
6HR MIN TEMP:  51; 6HR MAX TEMP:  59;

BOSCOBEL       CLEAR     51  41  68 SW6       29.87F
6HR MIN TEMP:  49; 6HR MAX TEMP:  65;

PRAIRIE DU CHI CLEAR     56  34  44 W10       29.88F
6HR MIN TEMP:  56; 6HR MAX TEMP:  64;

PLATTEVILLE    CLEAR     50  40  70 SW9       29.89F
6HR MIN TEMP:  49; 6HR MAX TEMP:  61;

$$

WIZ056-057-062-063-064-067-068-270700-
SOUTH CENTRAL WISCONSIN

CITY           SKY/WX    TMP DP  RH WIND       PRES   REMARKS
REEDSBURG      NOT AVBL
BARABOO/DELLS  CLEAR     51  35  54 W7        29.82S
6HR MIN TEMP:  47; 6HR MAX TEMP:  57;

LONE ROCK      CLEAR     50  40  68 W5        29.85F
6HR MIN TEMP:  44; 6HR MAX TEMP:  62;

MINERAL POINT  CLEAR     52  36  54 W10       29.87F
MADISON        CLEAR     55  36  48 VRB6      29.82F
6HR MIN TEMP:  54; 6HR MAX TEMP:  61;

MIDDLETON      NOT AVBL
WATERTOWN      CLEAR     51  40  66 SW7       29.82F
6HR MIN TEMP:  48; 6HR MAX TEMP:  60;

MONROE         CLEAR     54  36  50 SW15      29.87S
JANESVILLE     CLEAR     54  36  50 SW9       29.85F
$$

WIZ051-052-058>065-066-070>072-270700-
SOUTHEAST WISCONSIN

CITY           SKY/WX    TMP DP  RH WIND       PRES   REMARKS
MILWAUKEE      CLEAR     56  38  50 SW13      29.82F
6HR MIN TEMP:  55; 6HR MAX TEMP:  65;

WAUKESHA       CLEAR     50  36  57 SW8       29.83F
MILWAUKEE/TIMM CLEAR     50  36  57 SW7       29.82F
RACINE         CLEAR     53  38  56 SW10      29.85F
6HR MIN TEMP:  53; 6HR MAX TEMP:  63;

BURLINGTON     CLEAR     51  36  56 SW7       29.85S
6HR MIN TEMP:  51; 6HR MAX TEMP:  59;

KENOSHA        CLEAR     52  38  58 SW12      29.85F
6HR MIN TEMP:  51; 6HR MAX TEMP:  62;

FOND DU LAC    PTCLDY    52  40  63 SW9       29.78F
6HR MIN TEMP:  51; 6HR MAX TEMP:  58;

SHEBOYGAN      CLEAR     51  40  65 SW12      29.77F
6HR MIN TEMP:  49; 6HR MAX TEMP:  59;

WEST BEND      CLEAR     52  37  58 W9        29.80S
JUNEAU         CLEAR     47  39  74 SW8       29.82F
6HR MIN TEMP:  46; 6HR MAX TEMP:  59;

$$

LSZ147-162-270700-
LAKE SUPERIOR

STATION/POSITION TIME  TEMP    WIND        PRES    WAVE
                       AIR SEA DIR/SP/G            HT/PER
                 (UTC) (F)     (DEG/KT/KT) (MB)    (FT/S)
W MID LAKE BUOY  0550   51 46  270/ 16/ 17  999.6F   5/ 6
DEVILS ISLAND    0500   52     260/ 21/ 27 1002.8F
SAXON HARBOR     0500   54     280/ 11/ 17 1004.1
$$

LMZ867-665-643>646-270700-
LAKE MICHIGAN

STATION/POSITION TIME  TEMP    WIND        PRES    WAVE
                       AIR SEA DIR/SP/G            HT/PER
                 (UTC) (F)     (DEG/KT/KT) (MB)    (FT/S)
CHAMBERS ISLAND  0500   57     220/ 11/ 21 1004.1F
N MID LAKE BUOY  0550   58 66  250/ 25/ 31 1002.2F   7/ 6
NORTHPORT PIER   0500   58     270/  6/ 24 1004.4
KEWAUNEE LAKESHO 0500   58     250/  7/ 15 1006.3F
SHEBOYGAN LAKESH 0600   55     240/ 12/C1F1C2F2C3F3C4F4C5F5C6F6C7F7C8M1C9M2Ca!



USA.gov is the U.S. government's official web portal to all federal, state and local government web resources and services.